Weather History for Gulkana, AK

Change the Weather History Date:

Thursday, September 13, 2012

  Actual Average Record
Temperature  
Mean Temperature 41 °F -  
Max Temperature 52 °F 55 °F 140 °F (1998)
Min Temperature 28 °F 36 °F 19 °F (2004)
Degree Days  
Heating Degree Days 24    
Moisture  
Dew Point 35 °F    
Average Humidity 87    
Maximum Humidity 100    
Minimum Humidity 61    
Precipitation  
Precipitation 0.00 in - - ()
Sea Level Pressure  
Sea Level Pressure 29.81 in    
Wind  
Wind Speed 2 mph (North)    
Max Wind Speed 7 mph    
Max Gust Speed -    
Visibility 10 miles    
Events Rain    
Averages and records for this station are not official NWS values.
T = Trace of Precipitation, MM = Missing Value Source: NWS Daily Summary

Daily Weather History Graph

Daily Weather History Graph

Search for Another Location

Airport:

Trip Planner

Search our weather history database for the weather conditions in past years. The results will help you decide how hot, cold, wet, or windy it might be!

Date:

Astronomy

Sep. 13, 2012 Rise Set
Actual Time 7:03 AM AKDT 8:09 PM AKDT
Civil Twilight 6:18 AM AKDT 8:54 PM AKDT
Nautical Twilight 5:20 AM AKDT 9:51 PM AKDT
Astronomical Twilight 4:12 AM AKDT 10:58 PM AKDT
Moon 4:01 AM AKDT (9/13) 6:56 PM AKDT (9/13)
Length of Visible Light 14h 36m
Length of Day
13h 05m
Waning Crescent, 6% of the Moon is Illuminated
Sep 13
Waning Crescent
Sep 15
New
Sep 22
First Quarter
Sep 29
Full
Oct 7
Last Quarter

Hourly Weather History & Observations

Time (AKDT) Temp. Windchill Dew Point Humidity Pressure Visibility Wind Dir Wind Speed Gust Speed Precip Events Conditions
12:53 AM 37.0 °F - 35.1 °F 93% 29.81 in 10.0 mi Calm Calm - 0.00 in Rain Light Rain
1:53 AM 35.1 °F 32.2 °F 34.0 °F 96% 29.82 in 10.0 mi NNW 3.5 mph - 0.00 in   Overcast
2:53 AM 35.1 °F - 34.0 °F 96% 29.83 in 10.0 mi Calm Calm - N/A   Overcast
3:39 AM 35.6 °F - 35.6 °F 100% 29.77 in 10.0 mi Calm Calm - N/A   Overcast
3:53 AM 36.0 °F 33.3 °F 35.1 °F 97% 29.83 in 10.0 mi North 3.5 mph - N/A   Overcast
4:09 AM 35.6 °F 32.8 °F 35.6 °F 100% 29.78 in 10.0 mi North 3.5 mph - N/A   Overcast
4:36 AM 37.4 °F 33.8 °F 35.6 °F 93% 29.78 in 10.0 mi North 4.6 mph - N/A   Overcast
4:53 AM 37.0 °F - 35.1 °F 93% 29.83 in 10.0 mi Calm Calm - N/A   Overcast
5:32 AM 37.4 °F - 35.6 °F 93% 29.78 in 10.0 mi Calm Calm - N/A   Overcast
5:53 AM 37.0 °F 34.5 °F 35.1 °F 93% 29.83 in 10.0 mi NNE 3.5 mph - N/A   Overcast
6:03 AM 37.4 °F 34.9 °F 35.6 °F 93% 29.78 in 10.0 mi NNE 3.5 mph - 0.00 in Rain Light Rain
6:53 AM 37.0 °F 34.5 °F 36.0 °F 96% 29.84 in 10.0 mi NE 3.5 mph - 0.00 in   Overcast
7:53 AM 37.0 °F - 35.1 °F 93% 29.86 in 10.0 mi Calm Calm - N/A   Overcast
8:31 AM 37.4 °F - 35.6 °F 93% 29.79 in 10.0 mi Calm Calm - N/A   Overcast
8:53 AM 37.9 °F - 36.0 °F 93% 29.85 in 10.0 mi Calm Calm - N/A   Overcast
9:53 AM 39.0 °F - 37.9 °F 96% 29.86 in 9.0 mi Calm Calm - N/A   Overcast
10:00 AM 39.2 °F - 37.4 °F 93% 29.80 in 9.0 mi Calm Calm - N/A   Overcast
10:53 AM 39.9 °F 37.8 °F 37.9 °F 93% 29.86 in 10.0 mi SE 3.5 mph - N/A   Overcast
11:53 AM 41.0 °F - 37.9 °F 89% 29.86 in 10.0 mi Calm Calm - N/A   Overcast
12:53 PM 43.0 °F - 37.9 °F 82% 29.85 in 10.0 mi Calm Calm - N/A   Overcast
1:11 PM 44.6 °F - 37.4 °F 76% 29.80 in 10.0 mi Calm Calm - N/A   Overcast
1:53 PM 46.0 °F - 37.9 °F 73% 29.83 in 10.0 mi Calm Calm - N/A   Overcast
2:05 PM 48.2 °F - 37.4 °F 66% 29.78 in 10.0 mi Calm Calm - N/A   Mostly Cloudy
2:53 PM 48.0 °F - 37.9 °F 68% 29.82 in 10.0 mi Calm Calm - N/A   Mostly Cloudy
3:53 PM 46.9 °F - 37.9 °F 71% 29.81 in 10.0 mi WNW 4.6 mph - N/A   Mostly Cloudy
4:53 PM 48.9 °F - 37.0 °F 64% 29.79 in 10.0 mi NNE 6.9 mph - N/A   Scattered Clouds
5:53 PM 48.0 °F - 37.0 °F 66% 29.78 in 10.0 mi North 5.8 mph - N/A   Scattered Clouds
6:53 PM 46.9 °F - 36.0 °F 66% 29.78 in 10.0 mi North 6.9 mph - N/A   Scattered Clouds
7:53 PM 39.0 °F 36.8 °F 35.1 °F 86% 29.79 in 10.0 mi NNW 3.5 mph - N/A   Scattered Clouds
8:53 PM 37.0 °F 33.3 °F 33.1 °F 86% 29.79 in 10.0 mi NW 4.6 mph - N/A   Scattered Clouds
9:26 PM 33.8 °F 30.8 °F 30.2 °F 87% 29.73 in 10.0 mi NW 3.5 mph - N/A   Scattered Clouds
9:53 PM 33.1 °F - 30.9 °F 92% 29.80 in 10.0 mi Calm Calm - N/A   Partly Cloudy
10:53 PM 30.0 °F - 28.0 °F 92% 29.81 in 10.0 mi Calm Calm - N/A   Clear
11:53 PM 28.0 °F - 26.1 °F 92% 29.81 in 10.0 mi Calm Calm - N/A   Clear